STARLINK-32710, 62604

Orbit data source: Space-Track

STARLINK-32710, 62604 is a payload satellite owned by SpaceX/Seattle (US) in LEO that was launched on Mon, 13 Jan 2025 UTC via an FALCON 9 launch vehicle from the Air Force Eastern Test Range (AFETR). Payload-class satellites include a variety of spacecraft equipped with specific instruments for various scientific and technological missions. These include communications satellites like Starlink; space stations such as the ISS; scientific satellites like the Hubble; Earth observation satellites from companies like Planet Labs, Umbra, and HawkEye 360; GPS; miniature CubeSats for education and research; and military/defense satellites.

Loading next visibility...
Identifier
62604, 2025-008T
Orbit
LEO
Country
Flag of USUS
Related business
Manufacturer
SpaceX/Seattle
Mission
Operational Commercial Communications
Bus & Motor
STARLINK V2M, Unknown motor
Mass
730 kg wet, ~700 kg dry
Launch date (UTC)
2025-01-13 (11 months ago)
Launch vehicle
FALCON 9
Launch site
Air Force Eastern Test Range (AFETR)
Object type
Payload
Rocket body
Debris
Shape & HBR
Box + 2 Pan, 17.7 m
Radar Cross Section
33.884 m², Large (>1 m²)

Expand to show TLE details & history
Last TLE update: 10 hours ago

TLE from 10 hours ago
0 STARLINK-32710
1 62604U 25008T   25351.40334513  .00016623  00000-0  61212-3 0  9995
2 62604  43.0019  22.2913 0001051 276.1640  83.9092 15.27585742 52980
Epoch: 2025-12-17T09:40Z
TLE epoch observation values (Epoch: 2025-12-17T09:40:49.019Z)
Latitude
-0°
Longitude
150.81335°
Altitude
482.731 km
Speed
7.626 km/s
True Right ascension
01h 29m 09s
True Declination
0° 00' 00"
Sunlit
Object was in full shadow at epoch
Visualization orbit readout
Latitude
Unknown
Longitude
Unknown
Altitude
Unknown
Speed
Unknown
Apparent Right ascension
Unknown
Apparent Declination
Unknown
Sunlit
N/A
Visualization observer readout
Local Sidereal Time
18:56:52
Azimuth
Unknown
Elevation
Unknown
Doppler factor
Unknown
Orbital elements
Apogee altitude
485.698 km
Perigee altitude
484.255 km
Semi-major axis
6,863.114 km
Eccentricity
0.00011
Inclination
43.0019°
RAAN
22.2913°
Arg. of periapsis
276.164°
True anomaly
83.92118°
Mean anomaly
83.9092°
Eccentric anomaly
83.91519°
Mean motion
3.81734 °/min
Orbital period
94.31 mins
BSTAR
0.00061212
Loading maneuver chart data...
Computing Atmospheric mass density...
Loading historical data...
Loading historical data...
Loading historical data...
Loading historical data...
Loading historical data...
Loading historical data...
Loading historical data...

Documentation

Showing up to 5 results
|